CAPE
0 0 0 0 0 2 1 0 6 0 4 8 3 1 4 2 0 0 0 0 0 1 1 1 2 1 0 0 0 0 0 0 0 0 0 0 0 0 0 0 0 0 1 0
0 0 0 0 0 0 0 0 2 0 0 5 4 2 12 14 0 0 0 0 0 0 0 0 0 0 0 0 0 0 0 0 0 0 0 0 0 0 0 0 0 0 0 0
0 0 0 0 0 0 0 0 0 0 1 7 12 3 4 3 0 0 0 0 0 0 0 0 0 0 0 0 0 0 0 0 0 0 0 0 0 0 0 1 0 1 0 0
0 0 0 0 0 8 1 0 1 0 5 4 1 0 1 3 0 0 0 0 0 0 0 0 0 0 0 0 0 0 0 0 1 1 2 1 1 3 1 2 2 2 1 1
0 0 0 0 7 0 3 3 4 8 0 2 0 0 3 3 2 1 1 1 1 0 1 0 1 0 0 0 0 0 0 0 1 1 3 5 5 8 9 8 5 4 7 7
0 0 0 0 0 0 0 0 1 5 1 1 0 0 1 3 1 0 0 0 0 0 0 1 1 2 0 0 0 0 0 2 2 1 4 7 8 6 6 7 9 8 6 6
0 0 0 0 0 0 0 0 0 7 0 0 0 0 2 1 0 0 0 0 0 0 4 4 2 1 5 1 1 2 3 3 3 2 2 3 4 5 4 3 2 1 0 2
0 0 0 0 0 1 0 0 0 0 0 0 0 0 0 0 0 0 0 0 0 0 2 1 2 1 7 6 3 2 3 4 4 3 2 2 2 2 3 2 4 4 5 5
0 0 0 0 0 0 0 0 0 5 3 3 0 3 0 0 0 0 0 0 1 3 3 2 2 2 4 2 0 2 2 4 3 1 1 0 4 3 2 2 3 3 2 3
0 0 0 0 0 0 0 1 3 0 0 0 0 2 1 1 0 2 2 2 1 1 2 2 2 1 1 1 0 0 1 4 3 3 3 1 0 0 1 2 3 3 3 3
4 1 1 3 3 2 0 0 0 0 0 0 0 0 0 2 2 2 3 2 1 2 2 3 1 0 0 0 0 3 3 3 4 2 1 1 1 0 1 0 0 1 0 0
0 1 1 3 2 1 0 1 0 0 0 0 0 1 3 4 2 2 3 2 2 1 0 2 1 0 0 0 0 2 1 0 1 0 1 1 2 1 0 0 0 0 0 1
0 1 1 2 2 3 1 3 0 0 0 2 2 2 2 4 3 2 1 2 2 2 1 1 0 0 0 0 0 0 1 0 0 0 0 0 0 0 0 0 0 1 1 0
1 1 0 1 3 0 0 0 1 1 0 0 0 0 1 2 1 1 0 0 0 0 0 0 0 0 0 0 0 2 1 0 0 0 0 0 0 0 0 0 0 0 0 0
0 0 0 0 0 0 0 0 0 4 2 1 0 1 0 0 0 0 0 0 0 0 0 0 0 0 0 0 0 0 0 0 0 0 0 0 0 0 0 0 0 0 0 0
0 0 0 0 0 0 0 0 0 2 0 0 0 0 0 0 0 0 0 0 0 0 0 0 0 0 0 0 0 0 0 0 0 0 0 0 0 0 0 0 0 0 0 0
1 0 0 0 0 1 1 1 0 0 1 2 1 0 0 0 0 0 0 0 0 0 0 0 0 0 0 0 0 0 0 0 0 0 0 0 0 0 0 0 0 0 0 0
1 0 0 0 0 0 0 2 1 0 0 0 0 0 0 0 0 0 0 0 0 0 0 0 0 0 0 0 0 0 0 0 0 0 0 0 0 0 0 0 0 0 0 0
0 0 0 0 0 0 0 0 0 0 0 0 0 0 0 0 0 0 0 0 0 0 0 0 0 0 0 0 0 0 0 0 0 0 0 0 0 0 0 0 0 0 0 0
0 0 0 0 0 0 0 0 0 0 0 0 0 0 0 0 0 0 0 0 0 0 0 0 0 0 0 0 0 0 0 0 0 0 0 0 0 0 0 0 0 0 0 0
0 0 0 0 0 0 0 0 0 0 0 0 0 0 0 0 0 0 0 0 0 0 0 0 0 0 0 0 0 0 0 0 0 0 0 0 0 0 0 0 0 0 0 0
0 0 0 0 0 0 0 0 0 0 0 0 0 0 0 0 0 0 0 0 0 0 0 0 0 0 0 0 0 0 0 0 0 0 0 0 0 0 0 0 0 0 0 0
0 0 0 0 0 0 0 0 0 0 0 0 0 0 0 0 0 0 0 0 0 0 0 0 0 0 0 0 0 0 0 0 0 0 0 0 0 0 0 0 0 0 0 0
0 0 0 0 0 0 0 0 0 0 0 0 0 0 0 0 0 0 0 0 0 0 0 0 0 0 0 0 0 0 0 0 0 0 0 0 0 0 0 0 0 0 0 0
0 0 0 0 0 0 0 0 0 0 0 0 0 0 0 0 0 0 0 0 0 0 0 0 0 0 0 0 0 0 0 0 0 0 0 0 0 0 0 0 0 0 0 0
0 0 0 0 0 0 0 0 0 0 0 0 0 0 0 0 0 0 0 0 0 0 0 0 0 0 0 0 0 0 0 0 0 0 0 0 0 0 0 0 0 0 0 0
0 0 0 0 0 0 0 0 0 0 0 0 0 0 0 0 0 0 0 0 0 0 0 0 0 0 0 0 0 0 0 0 0 0 0 0 0 0 0 0 0 0 0 0
CIN
0 0 0 0 0 -0 -1 -16 -1 0 -2 -2 -2 -2 -3 -1 0 0 0 0 0 0 0 0 0 0 0 0 0 0 0 0 0 0 0 0 0 0 0 0 0 0 -16 0
0 0 0 0 0 0 0 0 0 0 0 -16 -13 -8 -2 -3 0 0 0 0 0 0 0 0 0 0 0 0 0 0 0 0 0 0 0 0 0 0 0 0 0 0 0 0
0 0 0 0 0 0 0 0 -18 0 -0 -2 -3 -1 -1 -8 0 0 0 0 0 0 0 0 0 0 0 0 0 0 0 0 0 0 0 0 0 0 0 0 0 0 0 0
0 0 0 0 0 -11 -3 0 -25 0 -3 -1 0 0 0 0 0 0 0 0 0 0 0 0 0 0 0 0 0 0 0 0 0 0 0 0 0 0 0 0 0 0 0 0
0 0 0 0 -9 -12 -1 -23 -22 -5 -0 0 0 0 0 0 0 0 0 0 0 0 0 0 0 0 0 0 0 0 0 0 0 0 0 0 0 0 0 0 0 0 0 0
0 0 0 0 0 0 0 0 -17 -38 0 0 0 0 0 0 0 0 0 0 0 0 0 0 0 0 0 0 0 0 0 0 0 0 0 0 0 0 0 0 0 0 0 0
0 0 0 0 0 0 0 0 -1 -7 0 0 0 0 0 0 0 0 0 0 0 0 0 0 0 0 0 0 0 0 0 0 0 0 0 0 0 0 0 0 0 0 0 0
0 -0 0 0 0 -1 0 0 0 0 0 0 0 0 0 0 0 0 0 0 0 0 0 0 0 0 0 0 0 0 0 0 0 0 0 0 0 0 0 0 0 0 0 0
0 0 0 0 -4 0 -2 0 0 0 0 0 0 0 0 0 0 0 0 0 0 0 0 0 0 0 0 0 0 0 0 0 0 0 0 0 0 0 0 0 0 0 0 0
-0 0 0 0 0 0 0 0 0 0 0 0 0 0 0 0 0 0 0 0 0 0 0 0 0 0 0 0 0 0 0 0 0 0 0 0 0 0 0 0 0 0 0 0
-0 0 0 0 0 0 0 0 0 0 0 0 0 0 0 0 0 0 0 0 0 0 0 0 0 0 0 0 0 0 0 0 0 0 0 0 -0 0 0 0 0 0 0 0
-1 0 0 0 0 0 0 0 0 0 0 0 0 0 0 0 0 0 0 0 0 0 0 0 0 0 0 0 0 0 0 0 0 0 0 0 0 0 -0 -0 -0 -0 -0 0
0 0 0 0 0 0 0 0 0 0 0 0 0 0 0 0 0 0 0 0 0 0 0 0 0 0 0 0 0 0 0 0 0 0 0 0 0 0 0 0 -0 -0 -0 -1
0 0 0 0 0 0 0 0 0 0 0 -0 0 0 0 0 0 0 0 0 0 0 0 0 0 0 0 0 0 0 0 0 0 0 0 0 0 0 0 0 0 0 0 -0
0 0 0 0 0 0 0 0 0 0 0 0 0 0 0 0 0 0 0 0 0 0 0 0 0 0 0 0 0 0 0 0 0 0 0 0 0 0 0 0 0 0 0 0
0 0 0 0 0 0 0 0 0 0 0 0 0 0 0 0 0 0 0 0 0 0 0 0 0 0 0 0 0 0 0 0 0 0 0 0 0 0 0 0 0 0 0 0
0 0 0 0 0 0 0 0 0 0 0 0 0 0 0 0 0 0 0 0 0 0 0 0 0 0 0 0 0 0 0 0 0 0 0 0 0 0 0 0 0 0 0 0
0 0 0 0 0 0 0 0 0 0 0 0 0 0 0 0 0 0 0 0 0 0 0 0 0 0 0 0 0 0 0 0 0 0 0 0 0 0 0 0 0 0 0 0
0 0 0 0 0 0 0 0 0 0 0 0 0 0 0 0 0 0 0 0 0 0 0 0 0 0 0 0 0 0 0 0 0 0 0 0 0 0 0 0 0 0 0 0
0 0 0 0 0 0 0 0 0 0 0 0 0 0 0 0 0 0 0 0 0 0 0 0 0 0 0 0 0 0 0 0 0 0 0 0 0 0 0 0 0 0 0 0
0 0 0 0 0 0 0 0 0 0 0 0 0 0 0 0 0 0 0 0 0 0 0 0 0 0 0 0 0 0 0 0 0 0 0 0 0 0 0 0 0 0 0 0
0 0 0 0 0 0 0 0 0 0 0 0 0 0 0 0 0 0 0 0 0 0 0 0 0 0 0 0 0 0 0 0 0 0 0 0 0 0 0 0 0 0 0 0
0 0 0 0 0 0 0 0 0 0 0 0 0 0 0 0 0 0 0 0 0 0 0 0 0 0 0 0 0 0 0 0 0 0 0 0 0 0 0 0 0 0 0 0
0 0 0 0 0 0 0 0 0 0 0 0 0 0 0 0 0 0 0 0 0 0 0 0 0 0 0 0 0 0 0 0 0 0 0 0 0 0 0 0 0 0 0 0
0 0 0 0 0 0 0 0 0 0 0 0 0 0 0 0 0 0 0 0 0 0 0 0 0 0 0 0 0 0 0 0 0 0 0 0 0 0 0 0 0 0 0 0
0 0 0 0 0 0 0 0 0 0 0 0 0 0 0 0 0 0 0 0 0 0 0 0 0 0 0 0 0 0 0 0 0 0 0 0 0 0 0 0 0 0 0 0
0 0 0 0 0 0 0 0 0 0 0 0 0 0 0 0 0 0 0 0 0 0 0 0 0 0 0 0 0 0 0 0 0 0 0 0 0 0 0 0 0 0 0 0
Wind_Speed
27 29 30 31 32 32 33 32 34 31 31 32 28 27 22 17 10 7 6 6 5 6 7 9 10 12 13 14 16 16 13 15 18 17 13 13 13 11 9 8 7 8 9 11
27 29 29 35 36 35 39 37 35 35 44 33 27 23 17 11 9 7 6 7 6 6 7 9 11 14 14 15 16 15 13 15 18 21 22 22 20 16 15 13 13 12 12 13
29 28 34 33 24 31 33 31 33 38 36 32 25 23 18 13 6 6 7 7 8 9 9 10 11 13 14 15 16 16 17 20 21 22 22 24 25 26 27 24 19 17 17 18
32 30 32 24 29 25 30 32 31 28 26 27 20 13 13 11 9 10 8 8 9 9 10 12 14 15 16 17 18 18 19 21 22 23 24 26 26 28 30 32 33 33 27 24
30 29 34 32 21 22 24 26 20 21 18 11 7 6 10 9 8 7 8 10 10 12 12 14 15 17 17 19 20 21 22 24 25 25 26 27 28 30 31 32 32 31 30 31
28 30 30 23 24 25 26 30 22 22 10 11 13 15 13 5 5 7 9 11 11 11 13 14 17 18 19 21 22 23 24 25 25 25 26 27 28 29 29 29 29 28 28 29
32 33 33 33 33 30 27 24 24 23 7 13 13 11 2 4 6 7 10 11 13 14 16 18 19 19 20 22 23 24 24 24 25 25 25 26 26 27 27 27 26 26 27 28
26 30 34 24 29 26 23 19 18 13 5 7 4 3 3 6 8 10 12 14 16 17 18 20 22 21 21 22 22 22 23 23 24 25 25 25 25 25 26 25 25 26 27 27
26 27 24 20 18 20 20 12 10 8 4 3 2 2 6 7 10 13 14 16 17 18 19 21 22 22 22 22 22 22 22 23 24 25 25 26 26 26 26 26 25 25 26 27
24 23 21 20 18 16 16 10 6 4 5 7 6 6 7 9 12 15 16 17 18 19 20 21 23 23 22 21 21 21 21 22 23 24 25 25 26 26 26 26 26 26 26 26
27 17 15 17 16 14 12 10 9 9 7 7 8 9 11 13 15 17 18 19 19 20 20 21 22 22 23 22 21 21 21 21 22 23 23 24 26 27 27 28 27 26 26 26
24 20 13 14 13 11 9 9 9 9 10 12 12 12 14 15 16 17 17 18 18 19 20 21 22 22 23 22 20 20 21 22 22 23 23 23 23 24 28 27 28 28 27 26
17 10 6 8 11 10 10 10 10 11 11 12 14 13 14 14 15 15 17 18 18 19 19 20 21 22 22 22 21 21 21 22 22 23 23 24 24 24 25 25 27 28 28 28
9 12 10 12 9 10 8 9 11 11 12 13 13 14 14 14 15 16 17 17 17 18 19 20 21 22 23 22 22 22 22 22 22 23 23 24 24 24 25 25 26 27 28 28
14 12 11 13 11 12 11 11 12 14 14 15 15 15 14 13 14 15 16 16 17 19 20 21 22 23 24 23 22 22 22 23 23 23 23 23 24 24 24 24 25 26 26 27
14 14 14 15 14 14 14 14 13 13 13 14 14 14 14 13 14 15 17 18 18 20 22 22 23 24 23 23 22 23 23 23 23 23 23 23 23 24 24 25 25 27 28 29
16 17 18 17 16 15 15 14 13 13 13 13 13 13 13 13 14 16 17 18 19 20 22 23 23 24 23 23 23 23 23 23 23 23 23 23 23 24 24 25 25 26 27 27
18 17 16 15 14 15 15 15 14 14 14 14 13 13 14 14 15 16 18 18 19 21 23 24 24 24 24 23 23 23 23 23 23 23 23 23 24 24 24 24 25 25 26 26
16 15 15 15 15 14 14 14 14 14 13 13 13 14 14 15 16 17 18 19 21 22 24 24 24 24 24 24 23 23 23 23 23 23 23 23 24 24 25 25 25 25 25 26
15 15 15 15 15 14 14 14 13 13 13 13 13 14 15 16 17 18 19 21 22 21 23 23 23 24 24 24 24 23 23 23 23 24 24 24 24 25 25 25 25 25 26 26
15 15 15 14 14 14 14 14 13 13 14 14 14 15 16 18 20 21 22 23 23 22 23 23 24 24 24 24 24 24 23 23 24 24 24 25 25 25 25 26 26 26 27 27
13 13 14 14 14 14 15 14 14 14 15 15 16 16 18 19 20 22 22 22 22 22 23 23 24 24 24 24 24 24 24 24 25 25 26 26 26 26 26 26 27 27 26 26
13 13 13 13 13 13 14 15 15 14 14 15 16 17 20 20 21 23 24 23 22 23 24 24 24 25 24 24 25 25 25 25 25 26 25 25 25 25 26 26 26 27 27 25
12 12 13 13 14 14 15 15 16 16 16 17 17 18 20 21 23 23 22 21 23 23 24 24 25 26 25 25 24 24 24 24 25 26 25 24 24 24 25 25 25 25 24 24
12 12 13 14 16 16 15 15 16 17 18 19 20 20 21 22 25 22 22 22 22 23 24 24 25 25 25 24 23 23 23 23 24 25 26 25 24 24 24 24 23 23 23 23
12 14 15 16 17 17 17 17 18 18 19 22 22 22 22 22 21 21 21 22 23 23 24 24 24 24 23 23 23 24 25 24 24 25 25 24 24 24 23 23 23 22 22 22
15 15 17 19 21 21 21 19 21 21 20 21 23 21 22 22 22 22 22 23 23 23 23 24 23 22 22 23 24 24 25 24 23 23 24 24 24 25 26 24 23 22 21 22
Wind_Direction
283 281 279 280 281 278 267 263 259 258 252 240 254 258 269 285 297 324 319 335 291 290 283 289 294 303 310 312 307 303 292 293 292 298 301 300 299 296 288 271 258 250 244 245
283 284 282 278 278 276 264 261 263 258 244 247 257 256 261 291 294 302 322 337 331 333 319 323 312 309 312 310 316 333 332 317 314 307 302 297 298 298 295 290 282 274 265 261
280 284 283 280 286 277 271 264 262 259 250 249 255 260 246 250 285 299 300 322 307 328 338 338 332 340 341 328 325 325 316 312 311 310 308 307 304 302 297 296 292 285 280 279
276 283 271 279 286 284 273 260 262 265 257 256 248 254 275 271 262 279 311 335 328 337 334 338 333 334 340 339 336 332 330 326 320 317 312 307 308 306 302 299 297 294 291 289
271 273 269 272 286 286 283 274 279 267 267 250 229 243 276 303 296 298 313 289 319 342 331 335 329 337 339 334 331 332 333 327 323 323 317 315 313 309 307 306 304 305 305 301
267 266 262 268 288 295 286 265 277 270 261 225 231 250 256 331 346 339 349 345 336 329 318 323 324 327 328 333 336 337 334 332 333 333 326 321 318 316 317 316 313 312 311 310
259 259 263 270 275 284 264 267 274 258 205 235 263 254 234 349 345 347 348 344 340 337 331 331 331 335 339 341 340 340 341 341 340 339 336 333 331 329 327 324 323 321 318 317
266 263 262 288 274 267 282 296 293 264 253 242 262 235 289 294 322 328 329 329 331 332 331 335 336 338 340 340 343 345 347 349 348 348 348 344 341 339 338 335 333 329 327 326
273 270 281 293 297 294 288 299 315 282 286 108 91 354 16 339 325 320 326 323 325 329 332 334 337 340 341 343 345 348 350 352 352 352 352 351 350 347 346 345 344 341 339 335
290 288 287 291 298 306 298 292 305 314 334 333 355 332 336 324 335 329 329 328 328 330 333 336 343 343 344 346 348 350 352 352 352 354 353 353 354 353 350 348 344 343 343 343
284 291 299 299 298 296 300 297 300 296 306 319 322 319 326 321 323 325 325 327 330 333 338 342 344 344 347 347 349 350 352 352 351 352 354 358 1 358 358 360 356 347 346 346
272 277 295 292 293 292 284 304 302 308 309 315 321 320 316 320 329 331 331 335 340 341 344 349 351 348 352 347 348 347 347 346 345 347 349 350 352 357 7 7 5 6 4 359
277 309 300 360 340 302 293 304 308 321 321 320 328 336 338 337 341 347 350 352 350 348 351 351 349 350 347 345 347 345 346 346 347 348 348 348 348 348 346 351 0 0 359 358
266 269 340 312 331 341 328 327 338 335 344 335 334 341 345 349 352 352 355 356 357 356 352 348 347 345 342 347 346 346 347 346 345 346 347 348 347 347 348 346 344 347 353 353
324 337 3 15 351 352 351 344 322 327 335 339 341 344 348 350 349 348 349 351 352 350 347 344 343 341 342 348 348 347 346 346 347 348 349 349 349 349 348 348 347 345 344 347
300 335 350 346 336 326 330 332 326 335 343 346 348 349 348 350 349 347 345 344 344 342 342 342 342 341 344 346 347 347 347 347 348 348 348 348 349 349 347 343 342 340 342 341
326 332 336 341 342 339 334 346 348 347 346 350 356 358 355 353 349 346 345 346 346 344 342 341 340 341 343 344 345 345 346 346 347 348 347 346 345 343 344 343 341 341 342 343
334 336 344 348 350 342 341 342 346 345 342 344 347 347 343 341 340 339 338 340 341 342 341 341 342 344 346 347 347 346 346 344 344 344 343 343 342 342 343 343 342 341 341 343
338 343 346 352 356 359 354 348 347 350 350 350 350 347 347 345 344 342 342 340 338 338 338 341 343 343 343 344 345 345 344 343 343 341 340 341 341 340 340 340 340 341 341 340
345 349 350 352 353 355 358 0 5 4 3 4 1 356 352 350 350 347 345 342 340 339 339 341 342 343 344 344 344 343 342 341 341 340 340 340 339 339 339 339 339 338 338 337
349 351 356 2 4 8 12 15 14 8 4 359 356 353 349 346 342 339 337 333 337 339 339 340 341 341 342 344 344 343 342 341 340 338 338 337 337 337 337 336 336 335 334 334
5 9 9 11 11 10 7 6 3 357 0 357 352 348 344 341 340 339 338 336 336 337 337 337 338 339 339 340 340 339 339 338 337 336 334 334 334 333 332 333 332 334 334 334
20 18 16 13 11 8 3 359 357 356 358 353 348 344 339 336 335 332 329 334 335 334 334 335 336 337 336 336 336 336 335 335 335 335 334 334 333 331 331 332 332 333 333 334
14 9 6 12 9 3 352 354 353 352 351 348 345 344 341 337 334 334 335 333 335 334 333 332 332 333 334 334 334 334 334 334 335 335 335 334 331 332 332 332 333 334 336 337
23 14 7 2 352 348 354 353 350 346 344 343 342 340 338 336 332 333 334 333 331 332 332 332 333 334 334 333 334 334 334 334 334 333 333 334 333 332 332 332 333 335 336 337
11 1 356 351 348 346 344 342 337 336 335 333 335 338 338 338 338 336 334 332 331 329 329 330 331 332 333 334 333 332 331 330 330 331 332 333 333 333 332 332 332 334 336 337
8 4 357 350 347 345 344 340 333 332 331 331 331 334 335 335 335 335 334 333 332 332 331 331 331 330 332 331 331 332 332 331 332 331 331 330 329 327 326 328 331 333 334 337